Ortonville, MN

8:50 PM CDT on July 25, 2017 (GMT -0500)
Ortonville Municipal-Martinson

Weather History for KVVV - January, 2014

Change the Weather History Date:

Tuesday, January 14, 2014

  Actual Average (KAQP) Record (KAQP)
Temperature  
Mean Temperature 21 °F -  
Max Temperature 30 °F 17 °F 37 °F (2004)
Min Temperature 12 °F 1 °F -27 °F (2009)
Degree Days  
Heating Degree Days 44    
Moisture  
Dew Point 12 °F    
Average Humidity 77    
Maximum Humidity 93    
Minimum Humidity 68    
Precipitation  
Precipitation 0.00 in - - ()
Sea Level Pressure  
Sea Level Pressure 29.98 in    
Wind  
Wind Speed 20 mph (NNW)    
Max Wind Speed 32 mph    
Max Gust Speed 46 mph    
Visibility 7 miles    
Events Snow    
Averages and records for this station are not official NWS values.
T = Trace of Precipitation, MM = Missing Value Source: NWS Daily Summary

Daily Weather History Graph

Daily Weather History Graph

Search for Another Location

Airport or City:

Trip Planner

Search our weather history database for the weather conditions in past years. The results will help you decide how hot, cold, wet, or windy it might be!

Date:

Astronomy

Jan. 14, 2014 Rise Set
Actual Time 8:01 AM CST 5:08 PM CST
Civil Twilight 7:28 AM CST 5:41 PM CST
Nautical Twilight 6:52 AM CST 6:17 PM CST
Astronomical Twilight 6:16 AM CST 6:53 PM CST
Moon 4:15 PM CST (1/14) 6:35 AM CST (1/14)
Length of Visible Light 10h 12m
Length of Day
9h 06m
Waxing Gibbous, 98% of the Moon is Illuminated
Jan 14
Waxing Gibbous
Jan 15
Full
Jan 23
Last Quarter
Jan 30
New
Feb 6
First Quarter

Hourly Weather History & Observations

Time (CST) Temp. Windchill Dew Point Humidity Pressure Visibility Wind Dir Wind Speed Gust Speed Precip Events Conditions
12:13 AM 28.4 °F 18.5 °F 26.6 °F 93% 29.50 in 10.0 mi WNW 11.5 mph - N/A   Overcast
12:34 AM 30.2 °F 19.3 °F 26.6 °F 86% 29.52 in 10.0 mi NW 15.0 mph - N/A   Overcast
12:54 AM 30.2 °F 18.5 °F 28.4 °F 93% 29.54 in 3.0 mi NW 17.3 mph 26.5 mph N/A Snow Light Snow
1:13 AM 30.2 °F 16.8 °F 26.6 °F 86% 29.55 in 1.8 mi NW 23.0 mph 34.5 mph N/A Snow Light Snow
1:34 AM 28.4 °F 13.8 °F 24.8 °F 86% 29.57 in 0.8 mi NW 25.3 mph 39.1 mph N/A Snow Light Snow
1:54 AM 26.6 °F 10.3 °F 24.8 °F 93% 29.58 in 0.8 mi NW 29.9 mph 44.9 mph N/A Snow Snow
2:14 AM 26.6 °F 9.8 °F 23.0 °F 86% 29.61 in 0.8 mi NW 32.2 mph 38.0 mph N/A Snow Light Snow
2:34 AM 26.6 °F 10.0 °F 21.2 °F 80% 29.64 in 1.2 mi NW 31.1 mph 41.4 mph N/A Snow Light Snow
2:54 AM 24.8 °F 7.3 °F 21.2 °F 86% 29.67 in 1.0 mi NNW 32.2 mph 46.0 mph N/A Snow Light Snow
3:14 AM 24.8 °F 9.6 °F 19.4 °F 80% 29.70 in 4.0 mi NNW 23.0 mph 39.1 mph N/A Snow Light Snow
3:34 AM 24.8 °F 8.7 °F 19.4 °F 80% 29.71 in 7.0 mi NNW 26.5 mph 33.4 mph N/A   Overcast
3:54 AM 23.0 °F 6.0 °F 19.4 °F 86% 29.73 in 7.0 mi NW 27.6 mph 36.8 mph N/A   Overcast
4:14 AM 23.0 °F 4.9 °F 17.6 °F 80% 29.74 in 7.0 mi NNW 32.2 mph 41.4 mph N/A   Overcast
4:34 AM 23.0 °F 5.4 °F 17.6 °F 80% 29.75 in 7.0 mi NNW 29.9 mph 39.1 mph N/A   Overcast
4:54 AM 23.0 °F 7.2 °F 17.6 °F 80% 29.77 in 7.0 mi NNW 23.0 mph 31.1 mph N/A Snow Light Snow
5:14 AM 23.0 °F 6.6 °F 17.6 °F 80% 29.77 in 4.0 mi NW 25.3 mph 35.7 mph N/A Snow Light Snow
5:34 AM 23.0 °F 6.0 °F 17.6 °F 80% 29.79 in 4.0 mi NW 27.6 mph 36.8 mph N/A Snow Light Snow
5:54 AM 23.0 °F 6.9 °F 15.8 °F 74% 29.79 in 7.0 mi NNW 24.2 mph 40.3 mph N/A Snow Light Snow
6:14 AM 21.2 °F 3.5 °F 15.8 °F 80% 29.80 in 10.0 mi NNW 27.6 mph 36.8 mph N/A   Overcast
6:34 AM 21.2 °F 3.5 °F 14.0 °F 74% 29.82 in 7.0 mi NNW 27.6 mph 36.8 mph N/A Snow Light Snow
6:54 AM 21.2 °F 5.2 °F 14.0 °F 74% 29.83 in 10.0 mi NW 21.9 mph 36.8 mph N/A   Overcast
7:14 AM 21.2 °F 4.9 °F 14.0 °F 74% 29.85 in 5.0 mi NNW 23.0 mph 36.8 mph N/A Snow Light Snow
7:34 AM 21.2 °F 3.3 °F 14.0 °F 74% 29.86 in 7.0 mi NNW 28.8 mph 36.8 mph N/A Snow Light Snow
7:53 AM 19.4 °F 2.1 °F 12.2 °F 74% 29.87 in 4.0 mi NNW 24.2 mph 36.8 mph N/A Snow Light Snow
8:14 AM 19.4 °F 2.5 °F 10.4 °F 68% 29.88 in 7.0 mi NNW 23.0 mph 39.1 mph N/A   Overcast
8:33 AM 19.4 °F 5.0 °F 12.2 °F 74% 29.90 in 10.0 mi NNW 16.1 mph 28.8 mph N/A   Overcast
8:54 AM 19.4 °F 1.8 °F 10.4 °F 68% 29.92 in 7.0 mi NNW 25.3 mph 35.7 mph N/A   Overcast
9:14 AM 17.6 °F -0.3 °F 10.4 °F 73% 29.93 in 7.0 mi NNW 24.2 mph 29.9 mph N/A   Overcast
9:34 AM 17.6 °F 0.5 °F 10.4 °F 73% 29.95 in 7.0 mi NNW 21.9 mph 33.4 mph N/A   Overcast
9:54 AM 17.6 °F -0.3 °F 12.2 °F 79% 29.97 in 2.0 mi North 24.2 mph 28.8 mph N/A Snow Light Snow
10:14 AM 15.8 °F -3.1 °F 10.4 °F 79% 29.98 in 1.2 mi NNW 25.3 mph 32.2 mph N/A Snow Light Snow
10:34 AM 15.8 °F -2.7 °F 10.4 °F 79% 30.00 in 1.5 mi NNW 24.2 mph 32.2 mph N/A Snow Light Snow
10:54 AM 15.8 °F -2.3 °F 10.4 °F 79% 30.02 in 2.0 mi North 23.0 mph 32.2 mph N/A Snow Light Snow
11:14 AM 17.6 °F 0.9 °F 10.4 °F 73% 30.03 in 4.0 mi NNW 20.7 mph 28.8 mph N/A   Haze
11:34 AM 17.6 °F 1.3 °F 10.4 °F 73% 30.03 in 7.0 mi NNW 19.6 mph 25.3 mph N/A   Overcast
11:53 AM 17.6 °F 0.9 °F 10.4 °F 73% 30.04 in 10.0 mi NW 20.7 mph 27.6 mph N/A   Overcast
12:14 PM 17.6 °F 0.9 °F 10.4 °F 73% 30.04 in 5.0 mi NNW 20.7 mph 25.3 mph N/A Snow Light Snow
12:34 PM 17.6 °F -0.3 °F 10.4 °F 73% 30.05 in 7.0 mi NNW 24.2 mph 31.1 mph N/A Snow Light Snow
12:54 PM 17.6 °F 1.3 °F 8.6 °F 68% 30.06 in 7.0 mi NNW 19.6 mph 27.6 mph N/A   Overcast
1:14 PM 17.6 °F 0.5 °F 8.6 °F 68% 30.06 in 3.0 mi NNW 21.9 mph 34.5 mph N/A   Haze
1:34 PM 17.6 °F 0.1 °F 10.4 °F 73% 30.07 in 7.0 mi NNW 23.0 mph 28.8 mph N/A Snow Light Snow
1:54 PM 17.6 °F 0.9 °F 10.4 °F 73% 30.09 in 3.0 mi NNW 20.7 mph 28.8 mph N/A Snow Light Snow
2:14 PM 17.6 °F 0.5 °F 8.6 °F 68% 30.10 in 5.0 mi NNW 21.9 mph 32.2 mph N/A Snow Light Snow
2:34 PM 15.8 °F -1.5 °F 8.6 °F 73% 30.11 in 10.0 mi NNW 20.7 mph 27.6 mph N/A Snow Light Snow
2:54 PM 15.8 °F -0.6 °F 8.6 °F 73% 30.11 in 10.0 mi NNW 18.4 mph 29.9 mph N/A   Overcast
3:13 PM 15.8 °F -1.5 °F 8.6 °F 73% 30.13 in 10.0 mi NNW 20.7 mph 29.9 mph N/A   Overcast
3:34 PM 15.8 °F -2.7 °F 6.8 °F 68% 30.14 in 10.0 mi North 24.2 mph 29.9 mph N/A   Overcast
3:53 PM 15.8 °F -1.9 °F 6.8 °F 68% 30.15 in 10.0 mi North 21.9 mph 28.8 mph N/A   Overcast
4:14 PM 14.0 °F -3.0 °F 6.8 °F 73% 30.15 in 10.0 mi North 18.4 mph 24.2 mph N/A   Overcast
4:34 PM 14.0 °F -1.4 °F 6.8 °F 73% 30.15 in 10.0 mi NNW 15.0 mph 19.6 mph N/A   Overcast
4:54 PM 14.0 °F -2.0 °F 6.8 °F 73% 30.15 in 10.0 mi NNW 16.1 mph 19.6 mph N/A   Overcast
5:14 PM 14.0 °F -0.2 °F 6.8 °F 73% 30.15 in 10.0 mi NNW 12.7 mph 21.9 mph N/A   Overcast
5:34 PM 14.0 °F -0.8 °F 6.8 °F 73% 30.17 in 10.0 mi NNW 13.8 mph - N/A   Overcast
5:54 PM 14.0 °F -0.2 °F 6.8 °F 73% 30.18 in 10.0 mi NNW 12.7 mph 17.3 mph N/A   Overcast
6:14 PM 14.0 °F 1.2 °F 6.8 °F 73% 30.18 in 10.0 mi NNW 10.4 mph - N/A Snow Light Snow
6:34 PM 12.2 °F -0.2 °F 8.6 °F 85% 30.19 in 7.0 mi North 9.2 mph - N/A Snow Light Snow
6:54 PM 12.2 °F -2.5 °F 8.6 °F 85% 30.20 in 10.0 mi North 12.7 mph - N/A Snow Light Snow
7:13 PM 12.2 °F -3.1 °F 6.8 °F 79% 30.20 in 10.0 mi North 13.8 mph - N/A   Overcast
7:34 PM 12.2 °F -4.8 °F 6.8 °F 79% 30.20 in 10.0 mi North 17.3 mph - N/A   Overcast
7:53 PM 12.2 °F -4.8 °F 6.8 °F 79% 30.20 in 10.0 mi North 17.3 mph - N/A   Overcast
8:14 PM 12.2 °F -1.8 °F 6.8 °F 79% 30.20 in 10.0 mi North 11.5 mph - N/A   Overcast
8:34 PM 12.2 °F -1.8 °F 6.8 °F 79% 30.20 in 10.0 mi North 11.5 mph - N/A   Overcast
8:54 PM 12.2 °F -1.0 °F 6.8 °F 79% 30.21 in 10.0 mi NNW 10.4 mph - N/A   Overcast
9:14 PM 12.2 °F -3.7 °F 5.0 °F 73% 30.21 in 10.0 mi NNW 15.0 mph - N/A   Overcast
9:33 PM 12.2 °F 0.7 °F 6.8 °F 79% 30.22 in 10.0 mi NNW 8.1 mph - N/A Snow Light Snow
9:54 PM 12.2 °F 0.7 °F 6.8 °F 79% 30.22 in 10.0 mi NNW 8.1 mph - N/A   Overcast
10:14 PM 12.2 °F 1.7 °F 6.8 °F 79% 30.21 in 10.0 mi NNW 6.9 mph - N/A   Overcast
10:33 PM 12.2 °F 0.7 °F 6.8 °F 79% 30.20 in 10.0 mi NNW 8.1 mph - N/A   Overcast
10:54 PM 12.2 °F -0.2 °F 6.8 °F 79% 30.20 in 10.0 mi NNW 9.2 mph - N/A Snow Light Snow
11:14 PM 12.2 °F 0.7 °F 6.8 °F 79% 30.19 in 10.0 mi NNW 8.1 mph 17.3 mph N/A Snow Light Snow
11:33 PM 12.2 °F -1.0 °F 6.8 °F 79% 30.18 in 10.0 mi NW 10.4 mph 17.3 mph N/A Snow Light Snow
11:54 PM 12.2 °F -0.2 °F 5.0 °F 73% 30.18 in 7.0 mi NNW 9.2 mph - N/A Snow Light Snow